Des Moines, IA

11:36 PM CST on December 12, 2017 (GMT -0600)
Des Moines International

Weather History for KDSM - March, 2013

Change the Weather History Date:

Friday, March 29, 2013

  Actual Average Record
Temperature  
Mean Temperature 50 °F 45 °F  
Max Temperature 64 °F 55 °F 91 °F (1986)
Min Temperature 35 °F 34 °F 6 °F (1969)
Degree Days  
Heating Degree Days 15 20  
Month to date heating degree days 939 757  
Since 1 July heating degree days 5296 5588  
Cooling Degree Days 0 0  
Month to date cooling degree days 0 0  
Year to date cooling degree days 0 0  
Moisture  
Dew Point 32 °F    
Average Humidity 56    
Maximum Humidity 82    
Minimum Humidity 30    
Precipitation  
Precipitation 0.00 in 0.09 in 1.47 in (2017)
Month to date precipitation 1.54 2.11  
Year to date precipitation 4.39 4.39  
Snow  
Snow 0.00 in 0.20 in 3.70 in (1954)
Month to date snowfall 9.6 5.0  
Since 1 July snowfall 48.3 33.3  
Snow Depth 0.00 in    
Sea Level Pressure  
Sea Level Pressure 30.22 in    
Wind  
Wind Speed 8 mph (SE)    
Max Wind Speed 15 mph    
Max Gust Speed 21 mph    
Visibility 10 miles    
Events      
T = Trace of Precipitation, MM = Missing Value Source: NWS Daily Summary

Daily Weather History Graph

Daily Weather History Graph

Search for Another Location

Airport or City:

Trip Planner

Search our weather history database for the weather conditions in past years. The results will help you decide how hot, cold, wet, or windy it might be!

Date:

Astronomy

Mar. 29, 2013 Rise Set
Actual Time 7:02 AM CDT 7:36 PM CDT
Civil Twilight 6:34 AM CDT 8:04 PM CDT
Nautical Twilight 6:01 AM CDT 8:37 PM CDT
Astronomical Twilight 5:27 AM CDT 9:11 PM CDT
Moon 10:40 PM CDT (3/29) 8:09 AM CDT (3/29)
Length of Visible Light 13h 30m
Length of Day
12h 34m
Waning Gibbous, 93% of the Moon is Illuminated
Mar 29
Waning Gibbous
Apr 2
Last Quarter
Apr 10
New
Apr 18
First Quarter
Apr 25
Full

Hourly Weather History & Observations

Time (CDT) Temp. Windchill Dew Point Humidity Pressure Visibility Wind Dir Wind Speed Gust Speed Precip Events Conditions
12:54 AM 42.1 °F 39.2 °F 32.0 °F 67% 30.27 in 10.0 mi East 4.6 mph - N/A   Partly Cloudy
1:54 AM 41.0 °F 39.0 °F 32.0 °F 70% 30.27 in 10.0 mi East 3.5 mph - N/A   Partly Cloudy
2:54 AM 39.0 °F 36.8 °F 30.9 °F 73% 30.26 in 10.0 mi East 3.5 mph - N/A   Clear
3:54 AM 37.9 °F - 30.9 °F 76% 30.25 in 10.0 mi Calm Calm - N/A   Clear
4:54 AM 37.0 °F 33.3 °F 30.9 °F 79% 30.24 in 9.0 mi East 4.6 mph - N/A   Clear
5:54 AM 37.0 °F 33.3 °F 30.9 °F 79% 30.25 in 9.0 mi East 4.6 mph - N/A   Clear
6:54 AM 36.0 °F 31.1 °F 30.0 °F 79% 30.26 in 9.0 mi East 5.8 mph - N/A   Clear
7:54 AM 37.0 °F 34.5 °F 30.9 °F 79% 30.28 in 7.0 mi East 3.5 mph - N/A   Clear
8:54 AM 41.0 °F 36.4 °F 30.9 °F 67% 30.29 in 10.0 mi ESE 6.9 mph - N/A   Clear
9:54 AM 45.0 °F 40.6 °F 32.0 °F 60% 30.30 in 10.0 mi SE 8.1 mph - N/A   Clear
10:54 AM 51.1 °F - 34.0 °F 52% 30.28 in 10.0 mi SSE 11.5 mph - N/A   Clear
11:54 AM 55.0 °F - 34.0 °F 45% 30.28 in 10.0 mi ESE 8.1 mph - N/A   Partly Cloudy
12:54 PM 57.9 °F - 33.1 °F 39% 30.26 in 10.0 mi ESE 11.5 mph - N/A   Partly Cloudy
1:54 PM 60.1 °F - 30.9 °F 33% 30.23 in 10.0 mi SE 13.8 mph - N/A   Scattered Clouds
2:54 PM 62.1 °F - 30.9 °F 31% 30.20 in 10.0 mi SSE 10.4 mph 17.3 mph N/A   Partly Cloudy
3:54 PM 63.0 °F - 30.9 °F 30% 30.18 in 10.0 mi SE 12.7 mph - N/A   Scattered Clouds
4:54 PM 63.0 °F - 30.9 °F 30% 30.16 in 10.0 mi South 9.2 mph - N/A   Scattered Clouds
5:54 PM 63.0 °F - 32.0 °F 31% 30.16 in 10.0 mi SSE 9.2 mph - N/A   Mostly Cloudy
6:54 PM 60.1 °F - 30.9 °F 33% 30.16 in 10.0 mi South 8.1 mph - N/A   Mostly Cloudy
7:54 PM 57.0 °F - 30.9 °F 37% 30.15 in 10.0 mi SE 8.1 mph - N/A   Partly Cloudy
8:54 PM 54.0 °F - 30.9 °F 41% 30.16 in 10.0 mi SE 9.2 mph - N/A   Partly Cloudy
9:54 PM 52.0 °F - 32.0 °F 47% 30.15 in 10.0 mi SSE 11.5 mph - N/A   Partly Cloudy
10:54 PM 50.0 °F - 32.0 °F 50% 30.14 in 10.0 mi SSE 10.4 mph - N/A   Scattered Clouds
11:54 PM 48.9 °F - 33.1 °F 54% 30.13 in 10.0 mi SSE 10.4 mph - N/A   Overcast